{"data":{"norad_id":69017,"intl_designator":"2026-100AP","name":"PELICAN-7","alt_names":[],"object_type":"PAYLOAD","status":"ACTIVE","operator":null,"country":"US","launch_date":"2026-05-03","launch_site_code":"AFWTR","launch_vehicle":null,"mission":null,"orbit_class":"UNKNOWN","rcs_meters":null,"size_class":null,"mass_kg":null,"dimensions":null,"purposes":["earth_obs"],"wikipedia_slug":null,"has_3d_model":false,"image_url":null,"decayed_at":null,"tle_current":{"epoch":"2026-05-25T04:27:44.961120Z","epoch_age_seconds":62054,"freshness":"FRESH","line1":"1 69017U 26100AP  26145.18593705  .00000205  00000+0  12433-4 0  9991","line2":"2 69017  97.4075  43.4272 0004726  90.7265 269.4512 15.20681844  3312","mean_motion":15.20681844,"eccentricity":0.0004726,"inclination_deg":97.4075,"raan_deg":43.4272,"arg_perigee_deg":90.7265,"mean_anomaly_deg":269.4512,"bstar":1.2433e-5,"rev_number":331,"period_min":94.694363957961,"perigee_km":500.53030406009,"apogee_km":507.03509455988,"semimajor_km":6881.91969931,"source":"CELESTRAK","updated_at":"2026-05-25T13:38:13.375055Z"}}}